Weather History for Lincolnton, NC

Change the Weather History Date:

Wednesday, January 16, 2013

  Actual Average (KCLT) Record (KCLT)
Temperature  
Mean Temperature 46 °F 40 °F  
Max Temperature 50 °F 50 °F 74 °F (1974)
Min Temperature 41 °F 29 °F 5 °F (1893)
Degree Days  
Heating Degree Days 20 25  
Month to date heating degree days 400  
Since 1 July heating degree days 1737  
Cooling Degree Days 0 0  
Month to date cooling degree days 0  
Year to date cooling degree days 0  
Moisture  
Dew Point 44 °F    
Average Humidity 98    
Maximum Humidity 100    
Minimum Humidity 87    
Precipitation  
Precipitation 0.18 in 0.11 in 1.69 in (1954)
Month to date precipitation 1.80  
Year to date precipitation 1.80  
Snow  
Snow 0.00 in 0.10 in 10.00 in (1965)
Month to date snowfall 1.0  
Since 1 July snowfall 1.4  
Snow Depth -    
Sea Level Pressure  
Sea Level Pressure 30.01 in    
Wind  
Wind Speed 2 mph (North)    
Max Wind Speed 6 mph    
Max Gust Speed -    
Visibility 7 miles    
Events Rain    
T = Trace of Precipitation, MM = Missing Value Source: NWS Daily Summary

Daily Weather History Graph

Daily Weather History Graph

Search for Another Location

Airport:

Trip Planner

Search our weather history database for the weather conditions in past years. The results will help you decide how hot, cold, wet, or windy it might be!

Date:

Astronomy

Jan. 16, 2013 Rise Set
Actual Time 7:32 AM EST 5:36 PM EST
Civil Twilight 7:05 AM EST 6:04 PM EST
Nautical Twilight 6:34 AM EST 6:35 PM EST
Astronomical Twilight 6:03 AM EST 7:05 PM EST
Moon 10:21 AM EST (1/16) 11:12 PM EST (1/16)
Length of Visible Light 10h 58m
Length of Day
10h 03m
Waxing Crescent, 28% of the Moon is Illuminated
Jan 16
Waxing Crescent
Jan 18
First Quarter
Jan 26
Full
Feb 3
Last Quarter
Feb 10
New

Hourly Weather History & Observations

Time (EST) Temp. Windchill Dew Point Humidity Pressure Visibility Wind Dir Wind Speed Gust Speed Precip Events Conditions
12:15 AM 41.0 °F 38.0 °F 41.0 °F 100% 30.07 in 7.0 mi North 4.6 mph - N/A   Overcast
12:35 AM 41.0 °F 39.0 °F 41.0 °F 100% 30.06 in 7.0 mi NNW 3.5 mph - N/A   Overcast
1:15 AM 41.0 °F 39.0 °F 41.0 °F 100% 30.06 in 7.0 mi NNW 3.5 mph - N/A Rain Heavy Rain
1:35 AM 41.0 °F - 41.0 °F 100% 30.06 in 5.0 mi Calm Calm - N/A Rain Rain
1:55 AM 41.0 °F 39.0 °F 41.0 °F 100% 30.05 in 7.0 mi North 3.5 mph - 0.01 in Rain Light Rain
2:15 AM 41.0 °F - 41.0 °F 100% 30.05 in 7.0 mi Calm Calm - N/A Rain Light Rain
2:35 AM 41.0 °F 39.0 °F 41.0 °F 100% 30.04 in 5.0 mi North 3.5 mph - 0.01 in Rain Heavy Rain
2:55 AM 41.0 °F 39.0 °F 41.0 °F 100% 30.05 in 7.0 mi North 3.5 mph - 0.01 in   Drizzle
3:15 AM 41.0 °F 39.0 °F 41.0 °F 100% 30.03 in 10.0 mi North 3.5 mph - N/A   Overcast
3:35 AM 41.0 °F 39.0 °F 41.0 °F 100% 30.04 in 10.0 mi North 3.5 mph - N/A   Drizzle
3:55 AM 41.0 °F 39.0 °F 41.0 °F 100% 30.03 in 5.0 mi North 3.5 mph - N/A   Light Drizzle
4:15 AM 41.0 °F - 41.0 °F 100% 30.02 in 4.0 mi Calm Calm - N/A   Drizzle
4:35 AM 41.0 °F 39.0 °F 41.0 °F 100% 30.01 in 5.0 mi NNE 3.5 mph - N/A   Drizzle
4:55 AM 41.0 °F 39.0 °F 41.0 °F 100% 30.00 in 5.0 mi NNW 3.5 mph - 0.01 in Rain Light Rain
5:15 AM 41.0 °F - 41.0 °F 100% 30.00 in 10.0 mi Calm Calm - N/A   Light Drizzle
5:35 AM 41.0 °F - 41.0 °F 100% 30.01 in 10.0 mi Calm Calm - N/A   Overcast
5:55 AM 41.0 °F - 41.0 °F 100% 30.01 in 7.0 mi Calm Calm - N/A   Overcast
6:15 AM 41.0 °F - 41.0 °F 100% 30.00 in 4.0 mi Calm Calm - N/A   Drizzle
6:35 AM 41.0 °F - 41.0 °F 100% 30.01 in 5.0 mi Calm Calm - N/A   Overcast
6:55 AM 41.0 °F 39.0 °F 41.0 °F 100% 30.01 in 7.0 mi North 3.5 mph - N/A   Overcast
7:15 AM 41.0 °F 39.0 °F 41.0 °F 100% 30.01 in 7.0 mi North 3.5 mph - N/A   Overcast
7:35 AM 41.0 °F - 41.0 °F 100% 30.01 in 5.0 mi Calm Calm - N/A   Drizzle
7:55 AM 41.0 °F - 41.0 °F 100% 30.01 in 3.0 mi Calm Calm - N/A Rain Light Rain
8:15 AM 41.0 °F - 41.0 °F 100% 30.02 in 1.8 mi Calm Calm - 0.04 in Rain Rain
8:35 AM 41.0 °F - 41.0 °F 100% 30.02 in 5.0 mi Calm Calm - 0.05 in Rain Light Rain
8:55 AM 41.0 °F - 41.0 °F 100% 30.04 in 10.0 mi Calm Calm - 0.05 in   Overcast
9:15 AM 42.8 °F 40.1 °F 41.0 °F 93% 30.04 in 10.0 mi NNW 4.6 mph - N/A   Overcast
9:35 AM 42.8 °F 41.1 °F 41.0 °F 93% 30.04 in 5.0 mi NNW 3.5 mph - N/A   Drizzle
9:55 AM 42.8 °F - 41.0 °F 93% 30.04 in 4.0 mi Calm Calm - N/A   Heavy Drizzle
10:15 AM 42.8 °F - 42.8 °F 100% 30.05 in 4.0 mi Calm Calm - N/A Rain Light Rain
10:35 AM 42.8 °F - 42.8 °F 100% 30.05 in 4.0 mi Calm Calm - 0.01 in Rain Rain
10:55 AM 42.8 °F - 42.8 °F 100% 30.05 in 1.8 mi Calm Calm - 0.02 in Rain Rain
11:15 AM 42.8 °F 39.3 °F 42.8 °F 100% 30.05 in 5.0 mi NNW 5.8 mph - N/A Rain Light Rain
11:35 AM 42.8 °F - 42.8 °F 100% 30.04 in 10.0 mi Calm Calm - 0.01 in Rain Rain
11:55 AM 42.8 °F - 42.8 °F 100% 30.03 in 3.0 mi Calm Calm - 0.02 in Rain Heavy Rain
12:15 PM 42.8 °F - 42.8 °F 100% 30.01 in 10.0 mi Calm Calm - 0.01 in   Drizzle
12:35 PM 42.8 °F 40.1 °F 42.8 °F 100% 29.99 in 10.0 mi East 4.6 mph - 0.01 in   Light Drizzle
12:55 PM 44.6 °F - 44.6 °F 100% 29.98 in 10.0 mi Calm Calm - 0.01 in   Light Drizzle
1:15 PM 44.6 °F - 44.6 °F 100% 29.99 in 10.0 mi Calm Calm - N/A   Overcast
1:35 PM 44.6 °F - 44.6 °F 100% 29.98 in 10.0 mi Calm Calm - N/A   Overcast
1:55 PM 44.6 °F - 44.6 °F 100% 29.99 in 10.0 mi Calm Calm - N/A   Overcast
2:15 PM 44.6 °F 43.1 °F 44.6 °F 100% 29.97 in 10.0 mi South 3.5 mph - N/A   Light Drizzle
2:35 PM 46.4 °F 45.2 °F 44.6 °F 93% 29.96 in 10.0 mi South 3.5 mph - N/A   Overcast
2:55 PM 46.4 °F - 46.4 °F 100% 29.97 in 10.0 mi Calm Calm - N/A   Overcast
3:15 PM 46.4 °F - 46.4 °F 100% 29.98 in 10.0 mi Calm Calm - N/A   Overcast
3:35 PM 48.2 °F - 46.4 °F 93% 29.99 in 10.0 mi Calm Calm - N/A   Overcast
3:55 PM 48.2 °F - 46.4 °F 93% 29.98 in 10.0 mi Calm Calm - N/A   Overcast
4:15 PM 48.2 °F - 46.4 °F 93% 30.00 in 10.0 mi Calm Calm - N/A   Overcast
4:35 PM 48.2 °F - 46.4 °F 93% 29.98 in 10.0 mi Calm Calm - N/A   Overcast
4:55 PM 50.0 °F - 46.4 °F 87% 29.98 in 10.0 mi Calm Calm - N/A   Overcast
5:15 PM 48.2 °F - 46.4 °F 93% 29.99 in 10.0 mi Calm Calm - N/A   Overcast
5:35 PM 48.2 °F - 46.4 °F 93% 30.00 in 10.0 mi Calm Calm - N/A   Overcast
5:55 PM 48.2 °F - 46.4 °F 93% 30.01 in 10.0 mi Calm Calm - N/A   Overcast
6:15 PM 48.2 °F - 46.4 °F 93% 29.99 in 10.0 mi Calm Calm - N/A   Overcast
6:35 PM 48.2 °F - 46.4 °F 93% 29.99 in 10.0 mi Calm Calm - N/A   Overcast
6:55 PM 48.2 °F - 46.4 °F 93% 30.00 in 10.0 mi Calm Calm - N/A   Overcast
7:15 PM 48.2 °F - 46.4 °F 93% 30.00 in 10.0 mi Calm Calm - N/A   Overcast
7:35 PM 48.2 °F - 48.2 °F 100% 29.99 in 7.0 mi Calm Calm - N/A Rain Light Rain
7:55 PM 48.2 °F - 48.2 °F 100% 29.99 in 7.0 mi Calm Calm - N/A   Overcast
8:15 PM 48.2 °F - 48.2 °F 100% 30.00 in 5.0 mi Calm Calm - 0.01 in Rain Rain
8:35 PM 48.2 °F - 46.4 °F 93% 30.00 in 5.0 mi Calm Calm - 0.01 in Rain Rain
8:55 PM 48.2 °F - 48.2 °F 100% 29.99 in 5.0 mi Calm Calm - 0.01 in   Overcast
9:15 PM 48.2 °F - 48.2 °F 100% 30.00 in 5.0 mi Calm Calm - N/A   Overcast
9:35 PM 48.2 °F - 48.2 °F 100% 29.99 in 4.0 mi Calm Calm - N/A Rain Light Rain
9:55 PM 48.2 °F - 48.2 °F 100% 29.99 in 7.0 mi Calm Calm - N/A Rain Rain
10:15 PM 48.2 °F - 48.2 °F 100% 29.99 in 5.0 mi Calm Calm - 0.01 in Rain Light Rain
10:35 PM 48.2 °F - 48.2 °F 100% 29.98 in 7.0 mi Calm Calm - 0.01 in Rain Light Rain
10:55 PM 48.2 °F - 48.2 °F 100% 29.98 in 5.0 mi Calm Calm - 0.01 in   Overcast
11:15 PM 48.2 °F - 48.2 °F 100% 29.98 in 7.0 mi Calm Calm - N/A Rain Rain
11:35 PM 50.0 °F - 48.2 °F 94% 29.98 in 4.0 mi Calm Calm - 0.02 in Rain Light Rain
11:55 PM 50.0 °F - 48.2 °F 94% 29.99 in 4.0 mi Calm Calm - 0.03 in Rain Rain